Погода Верещагино

Погода Верещагино : погода сейчас, прогноз погоды и архив. Всё, что Вы хотите узнать о погоде Верещагино!

Поиск расширенной информации на нашем сайте:

Другие новости

Новости СМИ2

Главная страница сайта

Новости сайта

02.10.2013

Напоминаем, что на нашем новом сайте вы можете получить высокодетализированные прогнозы погоды по пунктам России, СНГ и мира (включающие важные для авиации метеовеличины, такие как направление и скорость ветра, видимость, явления погоды, количество и форма облачности, нижняя и верхняя граница облачности), а также ознакомиться с разнообразными материалами по авиационной метеорологии и подборкой полезных ссылок на эту тему.

Сайт Метеоцентр.Азия посвящён разработке технологий оптимизации авиаметеорологического обслуживания, включая проектирование и перспективное создание нескольких автоматизированных авиаметеорологических систем:
- система выпуска высокодетальных прогностических карт явлений погоды для нижнего воздушного пространства по России и ближнему зарубежью;
- система верификации прогнозов TAF (выпускаемых синоптиками официальных АМСГ РФ и ближнего зарубежья) и AUTOTAF (выпускаемых сайтом Метеоцентр.Азия) - выявление ошибок, онлайн-сопоставление с фактической погодой METAR, автоматическое внесение коррективов в прогнозы при резком отклонении фактической погоды от прогноза, подсчёт оправдываемости прогнозов по элементам и в целом;
- система обработки, анализа и отображения авиаметеорологической информации для применения провайдерами метеорологической информации.


Погода Верещагино - сегодня

Время (UTC), дата Ветер
(°,м/с) 
Видим.   Явления Облачность Т
(°С)
Тd
(°С)
f(%) Тe
(°С)
Pmin
(гПа)
dP
(гПа)
Po
(мм)
O2
(г/м3)
Тmin Tmax R s Состояние
почвы
21 23.04.17 050 (СВ) н/о    8/0 верхняя 
[Cc]
-3.2 -3.9 95 -3  1017.6  -0.6  760  310           
00 24.04.17 020 (С) 20000 м    10/0 верхняя 
[Cc]
-3.3 -3.7 97 -3  1016.9  -0.7  760  310  -3.8      86  равномерный
мокрый или
старый снег
100% 
03 24.04.17 360 (С) 20000 м    10/0 средняя 
[As trans]
-0.6 -3.4 81 1015.6  -1.2  759  307           
06 24.04.17 360 (С) 20000 м    10/0 верхняя 
[Cs]
+4.7 -1.6 64 +6  1014.7  -0.9  758  301           
09 24.04.17 200 (Ю) 20000 м    9/0 средняя, верхняя 
[Ac lent|Cc]
+11.3 -1.7 40 +12  1013.4  -1.2  757  293           
12 24.04.17 180 (Ю) 20000 м    10/0 средняя, верхняя 
[Ac lent|Cc]
+9.1 -4.1 39 +10  1013.1  -0.3  757  296    -11.5       
15 24.04.17 180 (Ю) н/о    10/3 1000 м средняя 
[Sc|Ac As]
+8 -2.5 47 +8  1013.3  0.2  757  297           
18 24.04.17 180 (Ю) н/о    10/4 1000 м средняя 
[Sc|Ac As]
+6.1 +1.6 73 +6  1013.5  0.1  757  298           
21 24.04.17 160 (Ю) н/о    10/0 средняя 
[Ac As]
+4.4 +2.9 90 +4  1014  0.5  758  300           
00 25.04.17 160 (Ю) 20000 м  {дождь}  10/8 1000 м средняя 
[Sc|Ac As]
+3.2 +2.7 97 +2  1013.9  -0.1  758  301  +1.8    0.9  82  равномерный
мокрый или
старый снег
100% 
03 25.04.17 200 (Ю) 20000 м    3/3 1000 м верхняя 
[Cu Sc|Ci fib]
+3.5 +2.2 91 +2  1017.1  3.2  760  302           
06 25.04.17 230 (ЮЗ) 20000 м    3/3 1000 м 
[Sc]
+7.2 +1.9 69 +6  1020  762  299           
09 25.04.17 230 (ЮЗ) 20000 м    8/8 1000 м 
[Sc]
+8.4 +1.3 61 +8  1021.3  1.3  763  298           
12 25.04.17 230 (ЮЗ) 20000 м    4/4 1000 м 
[Cu med, cong]
+8.5 +1.1 60 +9  1021.3  763  298    +9.7       
15 25.04.17 180 (Ю) н/о    1/0 средняя 
[Ac lent]
+4.3 +2 85 +5  1020.7  -0.7  763  302           
18 25.04.17 180 (Ю) н/о    10/0 средняя 
[Ac As]
+6.1 +1.6 73 +7  1019.8  -0.9  762  300           
21 25.04.17 180 (Ю) н/о  слаб. ливневой дождь  10/10 600 м кучево-дожд. 
[Cb cap]
+4.5 +0.6 76 +5  1018.9  -0.9  761  302           
00 26.04.17 180 (Ю) 20000 м  {ливн. осадки}  10/10 600 м кучево-дожд. 
[Cb cap]
+5.1 +4.9 99 +4  1011.9  -7  756  298  +3.4    75  равномерный
мокрый или
старый снег
100% 
03 26.04.17 180 (Ю) 20000 м    8/0 средняя 
[Ac trans]
+7.4 +6.2 92 +6  1011.2  -0.6  756  295           
06 26.04.17 180 (Ю) 20000 м    1/1 600 м 
[Cu hum]
+9.6 +5.5 76 +9  1011.1  -0.1  756  293           
09 26.04.17 200 (Ю) 20000 м    1/1 600 м 
[Cu hum]
+11.9 +5 63 +11  1011.1  0.1  756  291           
12 26.04.17 270 (З) 20000 м    1/1 600 м 
[Cu hum]
+10.7 +4.8 67 +10  1013.7  1.9  757  293    -12.6       
15 26.04.17 180 (Ю) н/о    1/1 600 м 
[Sc diur, vesp]
+5 +3.3 89 +5  1014.9  1.7  758  300           
18 26.04.17 340 (С) н/о    ясно 
+1.2 +0.4 94 +2  1015.6  0.7  759  304           
21 26.04.17 340 (С) н/о    6/3 600 м средняя, верхняя 
[Sc|Ac trans|Ci fib]
-0.9 -1.2 98 1015.2  -0.4  759  307           
Время (UTC), дата Ветер
(°,м/с) 
Видим.   Явления Облачность Т
(°С)
Тd
(°С)
f(%) Тe
(°С)
Pmin
(гПа)
dP
(гПа)
Po
(мм)
O2
(г/м3)
Тmin Tmax R s Состояние
почвы

Для получения пояснительной информации подведите курсор к названию столбца.

ПОГОДА Верещагино - архив

Всё, что Вы хотите узнать о погоде Верещагино - удобно и подробно!

Выберите нужную дату (начиная с 1 января 2015* года) и нажмите кнопку "Найти".
Будут отображены архивные сводки погоды по пункту Верещагино, начиная с указанной даты.


Отображать данные в формате CSV (для использования в таблицах Excel)


Внимание! Наш архив погоды предназначен исключительно для личного некоммерческого использования в познавательных целях. Если Вам необходимы официальные справки о состоянии погоды (для производственных, юридических, коммерческих и т.п. целей), обращайтесь в органы Росгидромета.

*Примечание: данная дата относится к архиву по метеостанциям СССР (Россия, СНГ, Балтия).
Архив по метеостанциям Зарубежной Европы и Азии (кроме Китая) хранится 10 дней, по другим регионам земного шара (Китай, Африка, Америка, Австралия, Океания) - 1 день.

Верещагино - район местоположения метеостанции


Название, широта, долгота, высота метеостанции:
Верещагино 64.2°ш. 87.6°д. 26 м над ур. моря [Российская Федерация]

Дополнительная информация

В oтличие oт бoльшинства пoгoдных сайтoв мы публикуем пoдрoбную метеoинфoрмацию в детальнoм прoфессиoнальнoм фoрмате.

Характеристики температуры и влажнoсти вoздуха измеряются на высoте 2 м в тени вдали oт зданий и деревьев.
Скoрoсть ветра измеряется на высoте 10 м (на урoвне рoста челoвека скoрoсть ветра ниже в 1.5-2 раза). Если метеoстанция нахoдится в гoрoде или в лесу, тo скoрoсть ветра занижена на 2-4 м/с пo сравнению с oткрытым местoм. Скoрoсть ветра над акватoриями крупных рек и oзёр, а также на вершинах хoлмoв на 2-5 м/с выше, чем в oбычных услoвиях.
Атмoсфернoе давление в разных тoчках местнoсти мoжет значительнo oтличаться oт давления на метеoстанции, в зависимoсти oт услoвий рельефа (при пoдъёме на 10 м давление пoнижается примернo на 1 мм рт.ст.).